TimeEDT,TemperatureF,Dew PointF,Humidity,Sea Level PressureIn,VisibilityMPH,Wind Direction,Wind SpeedMPH,Gust SpeedMPH,PrecipitationIn,Events,Conditions,WindDirDegrees,DateUTC
12:53 AM,54.0,53.1,97,30.11,10.0,Calm,Calm,-,N/A,,Clear,0,2013-07-26 04:53:00
1:53 AM,54.0,53.1,97,30.10,6.0,Calm,Calm,-,N/A,,Clear,0,2013-07-26 05:53:00
2:53 AM,52.0,51.1,97,30.09,4.0,Calm,Calm,-,N/A,,Clear,0,2013-07-26 06:53:00
3:02 AM,51.8,51.8,100,30.09,1.8,Calm,Calm,-,N/A,,Clear,0,2013-07-26 07:02:00
3:09 AM,53.6,51.8,94,30.08,1.0,Calm,Calm,-,N/A,,Clear,0,2013-07-26 07:09:00
3:20 AM,53.6,51.8,94,30.08,2.0,Calm,Calm,-,N/A,,Clear,0,2013-07-26 07:20:00
3:37 AM,51.8,51.8,100,30.08,3.0,Calm,Calm,-,N/A,,Clear,0,2013-07-26 07:37:00
3:53 AM,54.0,53.1,97,30.08,4.0,Calm,Calm,-,N/A,,Clear,0,2013-07-26 07:53:00
4:32 AM,51.8,51.8,100,30.08,2.0,Calm,Calm,-,N/A,,Clear,0,2013-07-26 08:32:00
4:39 AM,51.8,51.8,100,30.08,1.8,Calm,Calm,-,N/A,,Clear,0,2013-07-26 08:39:00
4:46 AM,51.8,51.8,100,30.08,0.8,Calm,Calm,-,N/A,,Clear,0,2013-07-26 08:46:00
4:53 AM,53.1,52.0,96,30.07,0.5,Calm,Calm,-,N/A,Fog,Fog,0,2013-07-26 08:53:00
5:05 AM,51.8,51.8,100,30.08,2.5,Calm,Calm,-,N/A,,Clear,0,2013-07-26 09:05:00
5:21 AM,50.0,50.0,100,30.09,1.0,Calm,Calm,-,N/A,,Clear,0,2013-07-26 09:21:00
5:28 AM,51.8,50.0,94,30.08,0.5,Calm,Calm,-,N/A,Fog,Fog,0,2013-07-26 09:28:00
5:32 AM,51.8,51.8,100,30.08,2.0,Calm,Calm,-,N/A,,Clear,0,2013-07-26 09:32:00
5:39 AM,50.0,50.0,100,30.09,8.0,Calm,Calm,-,N/A,,Clear,0,2013-07-26 09:39:00
5:44 AM,51.8,50.0,94,30.09,1.5,Calm,Calm,-,N/A,,Clear,0,2013-07-26 09:44:00
5:46 AM,51.8,50.0,94,30.09,0.8,Calm,Calm,-,N/A,,Clear,0,2013-07-26 09:46:00
5:53 AM,48.9,48.9,100,30.09,0.5,Calm,Calm,-,N/A,Fog,Fog,0,2013-07-26 09:53:00
6:14 AM,51.8,51.8,100,30.08,1.5,Calm,Calm,-,N/A,,Clear,0,2013-07-26 10:14:00
6:16 AM,51.8,51.8,100,30.08,4.0,Calm,Calm,-,N/A,,Clear,0,2013-07-26 10:16:00
6:26 AM,50.0,48.2,94,30.08,1.2,Calm,Calm,-,N/A,,Clear,0,2013-07-26 10:26:00
6:41 AM,51.8,50.0,94,30.08,0.2,Calm,Calm,-,N/A,Fog,Fog,0,2013-07-26 10:41:00
6:53 AM,52.0,52.0,100,30.08,0.8,Calm,Calm,-,N/A,,Clear,0,2013-07-26 10:53:00
6:55 AM,53.6,51.8,94,30.08,1.8,Calm,Calm,-,N/A,,Clear,0,2013-07-26 10:55:00
7:07 AM,51.8,51.8,100,30.09,0.2,Calm,Calm,-,N/A,Fog,Fog,0,2013-07-26 11:07:00
7:51 AM,57.2,57.2,100,30.09,1.8,Calm,Calm,-,N/A,,Clear,0,2013-07-26 11:51:00
7:53 AM,57.9,57.0,97,30.08,4.0,Calm,Calm,-,N/A,,Clear,0,2013-07-26 11:53:00
8:53 AM,66.0,57.0,73,30.08,10.0,South,3.5,-,N/A,,Clear,190,2013-07-26 12:53:00
9:53 AM,69.1,57.0,65,30.08,10.0,SW,3.5,-,N/A,,Clear,220,2013-07-26 13:53:00
10:53 AM,73.0,59.0,61,30.07,10.0,Variable,4.6,-,N/A,,Clear,0,2013-07-26 14:53:00
11:53 AM,73.9,59.0,59,30.07,10.0,SSW,5.8,-,N/A,,Clear,210,2013-07-26 15:53:00
12:53 PM,73.9,57.9,57,30.06,10.0,South,8.1,-,N/A,,Scattered Clouds,190,2013-07-26 16:53:00
1:53 PM,77.0,59.0,54,30.04,10.0,SSW,9.2,-,N/A,,Partly Cloudy,210,2013-07-26 17:53:00
2:53 PM,78.1,57.9,50,30.01,10.0,SSW,10.4,-,N/A,,Scattered Clouds,200,2013-07-26 18:53:00
3:53 PM,75.0,57.0,53,29.99,10.0,South,8.1,-,N/A,,Partly Cloudy,190,2013-07-26 19:53:00
4:53 PM,77.0,57.0,50,29.98,10.0,South,11.5,17.3,N/A,,Mostly Cloudy,180,2013-07-26 20:53:00
5:53 PM,77.0,59.0,54,29.97,10.0,SW,9.2,-,N/A,,Clear,220,2013-07-26 21:53:00
6:53 PM,73.9,57.9,57,29.96,10.0,SSW,5.8,-,N/A,,Clear,200,2013-07-26 22:53:00
7:53 PM,73.0,59.0,61,29.95,10.0,South,5.8,-,N/A,,Clear,190,2013-07-26 23:53:00
8:53 PM,71.1,59.0,66,29.94,10.0,Calm,Calm,-,N/A,,Clear,0,2013-07-27 00:53:00
9:10 PM,69.8,59.0,68,29.95,1.8,SSE,3.5,-,N/A,,Haze,160,2013-07-27 01:10:00
9:14 PM,69.8,59.0,68,29.95,0.8,SSE,3.5,-,N/A,,Haze,150,2013-07-27 01:14:00
9:30 PM,69.8,59.0,68,29.95,1.2,SSE,4.6,-,N/A,,Haze,160,2013-07-27 01:30:00
9:41 PM,69.8,59.0,68,29.95,2.0,South,3.5,-,N/A,,Haze,170,2013-07-27 01:41:00
9:50 PM,69.8,59.0,68,29.94,7.0,Calm,Calm,-,N/A,,Partly Cloudy,0,2013-07-27 01:50:00
9:53 PM,69.1,59.0,70,29.93,9.0,Calm,Calm,-,N/A,,Partly Cloudy,0,2013-07-27 01:53:00
10:53 PM,69.1,60.1,73,29.92,10.0,SSE,3.5,-,N/A,,Overcast,150,2013-07-27 02:53:00
11:53 PM,68.0,61.0,78,29.92,7.0,West,15.0,18.4,0.00,Rain,Light Rain,270,2013-07-27 03:53:00